Вернуться в каталог

SL-8 R/B

АктивенLEO
NORAD 13649·ROCKET BODY·🇷🇺 Russia

Запущен Nov 11, 1982 с Plesetsk Cosmodrome

Loading…

Ближайшие Пролёты (ближайшие 24 часа)

TLE

СвежийSource: Space-Track

Эпоха: Sep 14, 2026, 18:04 UTC

1 13649U 82109B   26257.75331214  .00000033  00000-0  19565-4 0  9997
2 13649  73.9973 264.1846 0018542 344.1574 189.2530 14.38692687296551

Отслеживайте SL-8 R/B в реальном времени с AllMySat

Download on the App Store